Weather History for Thermopolis, WY

Change the Weather History Date:

Tuesday, January 1, 2013

  Actual Average (KWRL) Record (KWRL)
Temperature  
Mean Temperature 18 °F 16 °F  
Max Temperature 23 °F 30 °F 55 °F (1997)
Min Temperature 12 °F 3 °F -36 °F (1979)
Degree Days  
Heating Degree Days 48 49  
Month to date heating degree days 49  
Since 1 July heating degree days 3412  
Cooling Degree Days 0 0  
Month to date cooling degree days 0  
Year to date cooling degree days 0  
Moisture  
Dew Point 11 °F    
Average Humidity 82    
Maximum Humidity 93    
Minimum Humidity 43    
Precipitation  
Precipitation 0.00 in 0.01 in 0.15 in (1968)
Month to date precipitation 0.01  
Year to date precipitation 0.01  
Sea Level Pressure  
Sea Level Pressure 30.09 in    
Wind  
Wind Speed 14 mph (West)    
Max Wind Speed 36 mph    
Max Gust Speed 38 mph    
Visibility 8 miles    
Events Snow    
T = Trace of Precipitation, MM = Missing Value Source: NWS Daily Summary

Daily Weather History Graph

Daily Weather History Graph

Search for Another Location

Airport:

Trip Planner

Search our weather history database for the weather conditions in past years. The results will help you decide how hot, cold, wet, or windy it might be!

Date:

Astronomy

Jan. 01, 2013 Rise Set
Actual Time 7:45 AM MST 4:47 PM MST
Civil Twilight 7:13 AM MST 5:20 PM MST
Nautical Twilight 6:37 AM MST 5:56 PM MST
Astronomical Twilight 6:02 AM MST 6:31 PM MST
Moon 9:30 PM MST (1/1) 9:51 AM MST (1/1)
Length of Visible Light 10h 06m
Length of Day
9h 01m
Waning Gibbous, 83% of the Moon is Illuminated
Jan 1
Waning Gibbous
Jan 4
Last Quarter
Jan 11
New
Jan 18
First Quarter
Jan 26
Full

Hourly Weather History & Observations

Time (MST) Temp. Windchill Dew Point Humidity Pressure Visibility Wind Dir Wind Speed Gust Speed Precip Events Conditions
12:15 AM 14.0 °F -0.8 °F 8.6 °F 79% 30.02 in 7.0 mi NW 13.8 mph - N/A Snow Light Snow
12:35 AM 14.0 °F -0.8 °F 8.6 °F 79% 30.02 in 3.0 mi NW 13.8 mph - N/A Snow Light Snow
12:55 AM 12.2 °F -3.1 °F 10.4 °F 92% 30.02 in 2.0 mi NW 13.8 mph - N/A Snow Light Snow
1:15 AM 12.2 °F -3.1 °F 10.4 °F 92% 30.03 in 1.2 mi NW 13.8 mph - N/A Snow Light Snow
1:35 AM 12.2 °F -3.1 °F 10.4 °F 92% 30.03 in 1.5 mi NW 13.8 mph - N/A Snow Light Snow
1:55 AM 12.2 °F -3.1 °F 10.4 °F 92% 30.03 in 3.0 mi WNW 13.8 mph - N/A Snow Light Snow
2:15 AM 14.0 °F -0.8 °F 12.2 °F 93% 30.04 in 5.0 mi WNW 13.8 mph - N/A Snow Light Snow
2:35 AM 14.0 °F -0.8 °F 12.2 °F 93% 30.05 in 5.0 mi WNW 13.8 mph - N/A Snow Light Snow
2:55 AM 14.0 °F -0.2 °F 12.2 °F 93% 30.06 in 7.0 mi WNW 12.7 mph - N/A Snow Light Snow
3:15 AM 14.0 °F -0.8 °F 12.2 °F 93% 30.06 in 10.0 mi WNW 13.8 mph - N/A Snow Light Snow
3:35 AM 14.0 °F -0.2 °F 12.2 °F 93% 30.07 in 5.0 mi WNW 12.7 mph - N/A Snow Light Snow
3:55 AM 14.0 °F -0.8 °F 12.2 °F 93% 30.07 in 7.0 mi WNW 13.8 mph - N/A Snow Light Snow
4:15 AM 15.8 °F 2.1 °F 12.2 °F 86% 30.07 in 10.0 mi WNW 12.7 mph - N/A Snow Light Snow
4:35 AM 15.8 °F 1.4 °F 12.2 °F 86% 30.07 in 10.0 mi WNW 13.8 mph - N/A Snow Light Snow
4:55 AM 15.8 °F 2.1 °F 12.2 °F 86% 30.07 in 10.0 mi WNW 12.7 mph - N/A Snow Light Snow
5:15 AM 17.6 °F 4.3 °F 12.2 °F 79% 30.07 in 10.0 mi NW 12.7 mph - N/A   Overcast
5:35 AM 17.6 °F 4.3 °F 12.2 °F 79% 30.07 in 7.0 mi NNW 12.7 mph - N/A Snow Light Snow
5:55 AM 17.6 °F 5.7 °F 12.2 °F 79% 30.08 in 4.0 mi WNW 10.4 mph - N/A Snow Light Snow
6:15 AM 15.8 °F 5.1 °F 14.0 °F 93% 30.09 in 3.0 mi West 8.1 mph - N/A Snow Light Snow
6:35 AM 15.8 °F 6.1 °F 14.0 °F 93% 30.10 in 7.0 mi West 6.9 mph - N/A Snow Light Snow
6:55 AM 15.8 °F 7.2 °F 14.0 °F 93% 30.10 in 10.0 mi SW 5.8 mph - N/A Snow Light Snow
7:15 AM 17.6 °F 9.3 °F 14.0 °F 86% 30.10 in 10.0 mi WSW 5.8 mph - N/A   Overcast
7:35 AM 15.8 °F 6.1 °F 12.2 °F 86% 30.10 in 10.0 mi SW 6.9 mph - N/A   Overcast
7:55 AM 17.6 °F 8.2 °F 14.0 °F 86% 30.10 in 10.0 mi SW 6.9 mph - N/A Snow Light Snow
8:15 AM 15.8 °F 2.1 °F 10.4 °F 79% 30.10 in 10.0 mi SSW 12.7 mph - N/A   Mostly Cloudy
8:35 AM 15.8 °F 3.4 °F 10.4 °F 79% 30.10 in 10.0 mi SSW 10.4 mph - N/A   Mostly Cloudy
8:55 AM 17.6 °F 4.3 °F 12.2 °F 79% 30.10 in 10.0 mi SSW 12.7 mph - N/A   Scattered Clouds
9:15 AM 17.6 °F 5.0 °F 12.2 °F 79% 30.10 in 10.0 mi SSW 11.5 mph - N/A   Clear
9:35 AM 17.6 °F 4.3 °F 12.2 °F 79% 30.10 in 10.0 mi SSW 12.7 mph - N/A   Clear
9:55 AM 17.6 °F 6.4 °F 12.2 °F 79% 30.10 in 10.0 mi SSW 9.2 mph - N/A   Clear
10:15 AM 17.6 °F 3.7 °F 12.2 °F 79% 30.10 in 10.0 mi SSW 13.8 mph - N/A   Clear
10:35 AM 19.4 °F 7.2 °F 12.2 °F 74% 30.10 in 10.0 mi SSW 11.5 mph - N/A   Clear
10:55 AM 19.4 °F 8.6 °F 12.2 °F 74% 30.10 in 10.0 mi South 9.2 mph - N/A   Clear
11:15 AM 19.4 °F 9.5 °F 12.2 °F 74% 30.08 in 10.0 mi SSE 8.1 mph - N/A   Clear
11:35 AM 17.6 °F 5.0 °F 12.2 °F 79% 30.07 in 10.0 mi SSE 11.5 mph - N/A   Clear
11:55 AM 19.4 °F 8.6 °F 10.4 °F 68% 30.07 in 10.0 mi SSE 9.2 mph - N/A   Clear
12:15 PM 19.4 °F 7.2 °F 6.8 °F 58% 30.07 in 10.0 mi South 11.5 mph - N/A   Clear
12:35 PM 19.4 °F 9.5 °F 8.6 °F 63% 30.07 in 10.0 mi South 8.1 mph - N/A   Clear
12:55 PM 19.4 °F 10.4 °F 8.6 °F 63% 30.06 in 10.0 mi SSE 6.9 mph - N/A   Clear
1:15 PM 19.4 °F 10.4 °F 8.6 °F 63% 30.06 in 10.0 mi SSE 6.9 mph - N/A   Clear
1:35 PM 19.4 °F 10.4 °F 8.6 °F 63% 30.04 in 10.0 mi SSE 6.9 mph - N/A   Clear
1:55 PM 17.6 °F 7.3 °F 8.6 °F 68% 30.03 in 10.0 mi SSE 8.1 mph - N/A   Clear
2:15 PM 19.4 °F 5.0 °F 8.6 °F 63% 30.02 in 10.0 mi South 16.1 mph 21.9 mph N/A   Clear
2:35 PM 19.4 °F 7.2 °F 6.8 °F 58% 30.03 in 10.0 mi South 11.5 mph - N/A   Clear
2:55 PM 21.2 °F 12.6 °F 6.8 °F 54% 30.04 in 10.0 mi SSE 6.9 mph - N/A   Clear
3:15 PM 21.2 °F - 6.8 °F 54% 30.05 in 10.0 mi Calm Calm - N/A   Mostly Cloudy
3:35 PM 23.0 °F 15.8 °F 3.2 °F 43% 30.05 in 10.0 mi NNW 5.8 mph - N/A   Overcast
3:55 PM 21.2 °F 9.5 °F 5.0 °F 50% 30.07 in 10.0 mi NW 11.5 mph - N/A   Overcast
4:15 PM 17.6 °F 2.2 °F 10.4 °F 73% 30.07 in 10.0 mi NNW 17.3 mph - N/A   Overcast
4:35 PM 14.0 °F -5.8 °F 12.2 °F 93% 30.08 in 4.0 mi NW 26.5 mph - N/A Snow Light Snow
4:55 PM 14.0 °F -5.8 °F 12.2 °F 93% 30.08 in 0.2 mi NW 26.5 mph - N/A Snow Heavy Snow
5:15 PM 14.0 °F -5.1 °F 12.2 °F 93% 30.08 in 0.2 mi NW 24.2 mph - N/A Snow Light Snow
5:35 PM 15.8 °F -3.4 °F 14.0 °F 93% 30.10 in 2.5 mi NW 26.5 mph - N/A Snow Light Snow
5:55 PM 15.8 °F -3.1 °F 14.0 °F 93% 30.11 in 1.5 mi NW 25.3 mph - N/A Snow Light Snow
6:15 PM 15.8 °F -2.3 °F 14.0 °F 93% 30.12 in 0.5 mi NW 23.0 mph - N/A Snow Snow
6:35 PM 15.8 °F -3.1 °F 14.0 °F 93% 30.12 in 0.2 mi NW 25.3 mph - N/A Snow Heavy Snow
6:55 PM 15.8 °F -3.7 °F 14.0 °F 93% 30.12 in - NW 27.6 mph 32.2 mph N/A   Overcast
7:15 PM 17.6 °F -1.9 °F 14.0 °F 86% 30.12 in - NW 29.9 mph - N/A   Overcast
7:35 PM 15.8 °F -4.1 °F 14.0 °F 93% 30.13 in - NW 28.8 mph 38.0 mph N/A   Overcast
8:15 PM 15.8 °F -5.8 °F 14.0 °F 93% 30.13 in - WNW 35.7 mph - N/A   Overcast
8:35 PM 14.0 °F -6.8 °F 12.2 °F 93% 30.14 in - NW 29.9 mph - N/A   Unknown
8:55 PM 14.0 °F -6.2 °F 12.2 °F 93% 30.15 in 10.0 mi NW 27.6 mph 38.0 mph N/A   Overcast
9:15 PM 12.2 °F -8.9 °F 10.4 °F 92% 30.15 in 10.0 mi NW 28.8 mph - N/A   Scattered Clouds
9:35 PM 14.0 °F -5.8 °F 10.4 °F 86% 30.16 in 10.0 mi NW 26.5 mph - N/A   Scattered Clouds
9:55 PM 14.0 °F -6.2 °F 10.4 °F 86% 30.16 in 10.0 mi NW 27.6 mph - N/A   Clear
10:15 PM 12.2 °F -7.9 °F 10.4 °F 92% 30.16 in 10.0 mi NW 25.3 mph - N/A   Mostly Cloudy
10:35 PM 14.0 °F -5.5 °F 10.4 °F 86% 30.16 in 10.0 mi NW 25.3 mph - N/A   Overcast
10:55 PM 12.2 °F -7.9 °F 10.4 °F 92% 30.16 in 10.0 mi NW 25.3 mph - N/A   Mostly Cloudy
11:15 PM 12.2 °F -7.1 °F 10.4 °F 92% 30.17 in 10.0 mi WNW 23.0 mph - N/A   Scattered Clouds
11:35 PM 14.0 °F -3.9 °F 10.4 °F 86% 30.18 in 10.0 mi NW 20.7 mph - N/A   Overcast
11:55 PM 14.0 °F -3.0 °F 10.4 °F 86% 30.18 in 10.0 mi WNW 18.4 mph - N/A   Mostly Cloudy